Fergus Falls, MN

8:54 PM CST on February 24, 2017 (GMT -0600)
Fergus Falls Municipal-Mickelson

Weather History for KFFM - June, 2013

Change the Weather History Date:

Wednesday, June 5, 2013

  Actual Average Record
Temperature  
Mean Temperature 58 °F -  
Max Temperature 62 °F 74 °F 91 °F (1961)
Min Temperature 53 °F 52 °F 39 °F (1958)
Degree Days  
Heating Degree Days 8    
Growing Degree Days 8 (Base 50)    
Moisture  
Dew Point 54 °F    
Average Humidity 92    
Maximum Humidity 100    
Minimum Humidity 72    
Precipitation  
Precipitation 0.09 in - - ()
Sea Level Pressure  
Sea Level Pressure 29.97 in    
Wind  
Wind Speed 7 mph (ENE)    
Max Wind Speed 13 mph    
Max Gust Speed 20 mph    
Visibility 9 miles    
Events Rain    
Averages and records for this station are not official NWS values.
T = Trace of Precipitation, MM = Missing Value Source: NWS Daily Summary

Daily Weather History Graph

Daily Weather History Graph

Search for Another Location

Airport or City:

Trip Planner

Search our weather history database for the weather conditions in past years. The results will help you decide how hot, cold, wet, or windy it might be!

Date:

Astronomy

Jun. 05, 2013 Rise Set
Actual Time 5:34 AM CDT 9:12 PM CDT
Civil Twilight 4:56 AM CDT 9:50 PM CDT
Nautical Twilight 4:05 AM CDT 10:42 PM CDT
Astronomical Twilight 2:56 AM CDT 11:51 PM CDT
Moon 3:47 AM CDT (6/5) 6:33 PM CDT (6/5)
Length of Visible Light 16h 54m
Length of Day
15h 38m
Waning Crescent, 8% of the Moon is Illuminated
Jun 5
Waning Crescent
Jun 8
New
Jun 16
First Quarter
Jun 23
Full
Jun 29
Last Quarter

Hourly Weather History & Observations

Time (CDT) Temp. Dew Point Humidity Pressure Visibility Wind Dir Wind Speed Gust Speed Precip Events Conditions
12:14 AM 55.4 °F 55.4 °F 100% 29.97 in 10.0 mi SE 12.7 mph 19.6 mph N/A   Overcast
12:33 AM 55.4 °F 55.4 °F 100% 29.97 in 10.0 mi SE 11.5 mph - N/A   Overcast
12:53 AM 55.4 °F 55.4 °F 100% 29.97 in 10.0 mi SE 12.7 mph - N/A   Overcast
1:13 AM 55.4 °F 53.6 °F 94% 29.97 in 10.0 mi SE 12.7 mph - N/A   Mostly Cloudy
1:33 AM 55.4 °F 53.6 °F 94% 29.96 in 10.0 mi SE 11.5 mph - N/A   Overcast
1:53 AM 55.4 °F 53.6 °F 94% 29.96 in 10.0 mi SE 10.4 mph - N/A   Overcast
2:13 AM 55.4 °F 53.6 °F 94% 29.96 in 10.0 mi SE 11.5 mph - N/A   Overcast
2:33 AM 55.4 °F 53.6 °F 94% 29.96 in 10.0 mi SE 10.4 mph - N/A   Overcast
2:53 AM 55.4 °F 53.6 °F 94% 29.96 in 10.0 mi SE 10.4 mph - N/A   Overcast
3:13 AM 55.4 °F 53.6 °F 94% 29.95 in 10.0 mi SE 8.1 mph - N/A   Overcast
3:33 AM 53.6 °F 53.6 °F 100% 29.95 in 10.0 mi SE 4.6 mph - N/A   Mostly Cloudy
3:53 AM 53.6 °F 53.6 °F 100% 29.95 in 7.0 mi SE 5.8 mph - N/A   Mostly Cloudy
4:13 AM 53.6 °F 53.6 °F 100% 29.95 in 7.0 mi SE 4.6 mph - N/A   Overcast
4:33 AM 53.6 °F 53.6 °F 100% 29.95 in 7.0 mi SE 3.5 mph - N/A   Overcast
4:53 AM 53.6 °F 53.6 °F 100% 29.95 in 5.0 mi Calm Calm - N/A   Overcast
5:13 AM 53.6 °F 53.6 °F 100% 29.95 in 5.0 mi SSE 3.5 mph - N/A   Overcast
5:33 AM 53.6 °F 53.6 °F 100% 29.95 in 10.0 mi SSW 3.5 mph - N/A   Overcast
5:53 AM 53.6 °F 53.6 °F 100% 29.95 in 10.0 mi Calm Calm - N/A   Overcast
6:13 AM 53.6 °F 53.6 °F 100% 29.95 in 10.0 mi Calm Calm - N/A   Overcast
6:33 AM 53.6 °F 53.6 °F 100% 29.95 in 10.0 mi Calm Calm - N/A   Overcast
6:53 AM 53.6 °F 53.6 °F 100% 29.96 in 10.0 mi Calm Calm - N/A   Overcast
7:13 AM 53.6 °F 53.6 °F 100% 29.96 in 10.0 mi Calm Calm - N/A   Mostly Cloudy
7:33 AM 55.4 °F 53.6 °F 94% 29.96 in 10.0 mi Calm Calm - N/A   Mostly Cloudy
7:53 AM 55.4 °F 53.6 °F 94% 29.97 in 10.0 mi Calm Calm - N/A Rain Light Rain
8:13 AM 53.6 °F 53.6 °F 100% 29.97 in 10.0 mi Calm Calm - 0.01 in Rain Rain
8:33 AM 53.6 °F 53.6 °F 100% 29.98 in 10.0 mi Calm Calm - 0.01 in   Light Drizzle
8:53 AM 53.6 °F 53.6 °F 100% 29.98 in 10.0 mi Calm Calm - 0.03 in   Drizzle
9:13 AM 53.6 °F 53.6 °F 100% 29.98 in 7.0 mi Calm Calm - 0.01 in   Light Drizzle
9:33 AM 53.6 °F 53.6 °F 100% 29.98 in 5.0 mi WSW 3.5 mph - 0.04 in   Drizzle
9:54 AM 53.6 °F 53.6 °F 100% 29.98 in 4.0 mi West 5.8 mph - 0.06 in   Light Drizzle
10:13 AM 55.4 °F 55.4 °F 100% 29.98 in 10.0 mi WNW 5.8 mph - N/A   Overcast
10:33 AM 55.4 °F 55.4 °F 100% 29.98 in 10.0 mi NNW 3.5 mph - N/A   Overcast
10:53 AM 55.4 °F 55.4 °F 100% 29.98 in 10.0 mi North 3.5 mph - N/A   Overcast
11:13 AM 55.4 °F 53.6 °F 94% 29.99 in 10.0 mi NNE 3.5 mph - N/A   Overcast
11:33 AM 55.4 °F 53.6 °F 94% 29.99 in 10.0 mi ENE 4.6 mph - N/A   Overcast
11:53 AM 55.4 °F 53.6 °F 94% 29.99 in 10.0 mi Calm Calm - N/A   Overcast
12:13 PM 57.2 °F 55.4 °F 94% 29.99 in 10.0 mi NE 4.6 mph - N/A Rain Light Rain
12:33 PM 57.2 °F 53.6 °F 88% 30.00 in 10.0 mi ENE 3.5 mph - N/A   Mostly Cloudy
12:54 PM 57.2 °F 53.6 °F 88% 30.00 in 10.0 mi NE 3.5 mph - N/A   Overcast
1:13 PM 59.0 °F 53.6 °F 82% 30.00 in 10.0 mi Calm Calm - N/A   Overcast
1:33 PM 60.8 °F 53.6 °F 77% 30.00 in 10.0 mi North 3.5 mph - N/A   Overcast
1:54 PM 60.8 °F 53.6 °F 77% 29.99 in 10.0 mi NE 5.8 mph - N/A   Overcast
2:13 PM 60.8 °F 53.6 °F 77% 29.99 in 10.0 mi NE 8.1 mph - N/A   Overcast
2:33 PM 62.6 °F 55.4 °F 77% 29.99 in 10.0 mi North 8.1 mph - N/A   Mostly Cloudy
2:54 PM 62.6 °F 55.4 °F 77% 29.99 in 10.0 mi North 6.9 mph - N/A   Scattered Clouds
3:13 PM 60.8 °F 53.6 °F 77% 29.99 in 10.0 mi NNE 9.2 mph - N/A   Mostly Cloudy
3:33 PM 60.8 °F 53.6 °F 77% 29.99 in 10.0 mi NNE 8.1 mph - N/A   Overcast
3:52 PM 60.8 °F 53.6 °F 77% 29.99 in 10.0 mi NNE 9.2 mph - N/A   Overcast
4:13 PM 60.8 °F 53.6 °F 77% 29.99 in 10.0 mi NNE 11.5 mph - N/A   Overcast
4:33 PM 60.8 °F 53.6 °F 77% 29.99 in 10.0 mi NE 11.5 mph - N/A   Overcast
4:53 PM 60.8 °F 53.6 °F 77% 29.99 in 10.0 mi NE 11.5 mph 17.3 mph N/A   Scattered Clouds
5:13 PM 60.8 °F 51.8 °F 72% 29.99 in 10.0 mi NE 11.5 mph - N/A   Clear
5:33 PM 60.8 °F 53.6 °F 77% 29.99 in 10.0 mi ENE 10.4 mph - N/A   Mostly Cloudy
5:51 PM 62.6 °F 53.6 °F 72% 29.99 in 10.0 mi NE 10.4 mph - N/A   Overcast